Погода в Теофиполе

Украина / Хмельницкая область     49°50′29″N   26°24′42″E
темп.,
°C
ветер,
м/с
пор.,
м/с
влажн.,
%
обл.,
%
осадки,
мм/ч
давл.,
гПа
погр.,
м
20 сентября, пн
пн2000:00+6зсз6992100 0.1 10111042
03:00+6зсз61093100 0.3 1011869
06:00+6зсз61195100 0.2 1012561
09:00+6зсз61094100 0.2 1013533
12:00+6зсз6991100 0.0 1014651
15:00+7зсз6887100 0.1 1015779
18:00+6зсз5889100 0.1 1016921
21:00+5зсз5890100 0.3 10171013
21 сентября, вт
вт2100:00+5зсз6991100 0.4 1018789
03:00+4зсз61093100 0.6 1019754
06:00+4зсз71295100 0.1 1019876
09:00+5сз81289100 0.3 10201043
12:00+7сз81378100 0.2 10201333
15:00+8сз71275100 0.3 10211511
18:00+7сз71378100 0.1 10211105
21:00+6сз61181100 0.1 1023891
22 сентября, ср
ср2200:00+6зсз51081100 0.0 1022776
03:00+6зсз51177100 0.0 1021565
06:00+6зсз51173100 0.0 1020591
09:00+7сз5978100 0.0 1019674
12:00+8сз6875100 0.2 10191070
15:00+7ссз5887100 0.6 10191030
18:00+7ссз4882100 0.2 1019825
21:00+6сз5887100 0.9 10191025
23 сентября, чт
чт2300:00+5сз6888100 0.6 1018896
03:00+5сз4693100 0.8 1018780
06:00+5сз4792100 0.1 1018534
09:00+5сз4889100 0.1 1018751
12:00+6сз4786100 0.1 1018959
15:00+8сз4673100 0.1 1018941
18:00+9сз256899 0.0 1017645
21:00+8юз2272100 0.0 101625
24 сентября, пт
пт2400:00+8ююз3574100 0.0 1015127
03:00+8ююз4882100 0.0 1013216
06:00+7ююз4985100 0.0 1012200
09:00+9ююз61368100 0.0 1010374
12:00+12юз71460100 0.0 10091017
15:00+12з8137869 0.8 10091123
18:00+12з81374100 0.3 10101038
21:00+10з61376100 0.3 1012524